Вернуться в каталог

CZ-6A DEB

АктивенSSO
NORAD 54623·DEBRIS·🇨🇳 China

Запущен Nov 11, 2022 с Taiyuan Satellite Launch Center

Loading…

Ближайшие Пролёты (ближайшие 24 часа)

TLE

СвежийSource: Space-Track

Эпоха: Sep 13, 2026, 23:05 UTC

1 54623U 22151NZ  26256.96211022  .00000485  00000-0  28188-3 0  9992
2 54623  98.8467 260.5523 0044046  80.2374 280.3769 14.12800503196431

Отслеживайте CZ-6A DEB в реальном времени с AllMySat

Download on the App Store